Tracking 27097 objects as of 29-Mar-2023
HD Live streaming from Space Station
objects crossing your sky now

SATCOM 1

Track SATCOM 1 now!
SATCOM 1 is classified as:


NORAD ID: 8476
Int'l Code: 1975-117A
Perigee: 35,926.5 km
Apogee: 36,038.7 km
Inclination: 10.5 °
Period: 1,445.8 minutes
Semi major axis: 42353 km
RCS: 2.5118 m2 (large)
Launch date: December 13, 1975
Source: United States (US)
Launch site: AIR FORCE EASTERN TEST RANGE (AFETR)
Your satellite tracking list
Your tracking list is empty




NASA's NSSDC Master Catalog

Two Line Element Set (TLE):
1 08476U 75117A   23087.52067278 -.00000284  00000-0  00000-0 0  9998
2 08476  10.4897 314.0005 0013242 232.2227 300.2021  0.99601799 34646
Source of the keplerian elements: AFSPC